Simultaneous Nadir Overpasses (SNOs) Predictions

Prediction of SNOs between FY3D and TERRA Satellite Orbit:

Table of predicted SNOs for the next 14.0 days since TLE Epoch: 2/10/2024
Index Date (FY3D) Time (FY3D) Lat,Lon (FY3D) SZA (FY3D ) Date (TERRA) Time (TERRA) Lat,Lon (TERRA) SZA (TERRA ) Distance(km) Time Diff (sec)
1 02/10/2024 23:17:56 -75.11, 10.13 90.67 02/10/2024 23:19:08 -75.03, 10.62 90.77 16.73 72
2 02/11/2024 00:08:38 74.93, 177.97 89.13 02/11/2024 00:08:30 74.93, 178.02 89.12 1.65 8
3 02/11/2024 00:59:11 -74.35, -13.09 91.49 02/11/2024 00:58:04 -74.37, -15.68 91.43 77.60 67
4 02/13/2024 11:21:44 74.98, 9.62 88.36 02/13/2024 11:22:18 74.97, 9.64 88.35 1.26 34
5 02/13/2024 12:12:28 -74.92, 177.10 91.72 02/13/2024 12:11:42 -74.93, 177.19 91.71 2.84 46
6 02/15/2024 22:34:52 75.17,-159.19 87.73 02/15/2024 22:36:03 75.08,-158.55 87.62 20.79 71
7 02/15/2024 23:25:33 -74.97, 8.73 92.50 02/15/2024 23:25:29 -74.94, 8.74 92.53 3.13 4
8 02/16/2024 00:16:06 74.36, 177.74 86.86 02/16/2024 00:14:59 74.41, 175.12 86.95 78.54 67
9 02/18/2024 10:38:38 -74.98,-159.54 93.35 02/18/2024 10:39:16 -74.97,-159.66 93.36 3.80 38
10 02/18/2024 11:29:23 74.95, 7.87 86.61 02/18/2024 11:28:36 74.96, 7.96 86.61 2.69 47
11 02/20/2024 21:51:48 -75.24, 31.47 93.96 02/20/2024 21:53:00 -75.12, 32.24 94.10 25.79 72
12 02/20/2024 22:42:28 74.97,-160.42 85.75 02/20/2024 22:42:22 75.00,-160.40 85.78 2.97 6
13 02/20/2024 23:33:03 -74.48, 8.28 94.78 02/20/2024 23:31:55 -74.51, 6.04 94.71 66.60 68
14 02/23/2024 09:55:33 75.01, 31.26 84.89 02/23/2024 09:56:08 75.01, 31.15 84.89 3.25 35



Historial Predications of SNOs between FY3D and TERRA
